This is the latest recevied weather packets stored in our database for station/object KD4PMP. If no packets are shown the sender has not sent any weather packets the latest 10 day(s).
| Time | Temp. | Humidity | Pressure | Rain* | Wind** | Luminosity | Snow |
|---|---|---|---|---|---|---|---|
| 1777857595 | 16.67° C | 51% | 1014.4 hPa | 0 mm | - | - | - |
| 1777857024 | 17.22° C | 49% | 1014.6 hPa | 0 mm | - | - | - |
| 1777856394 | 17.78° C | 47% | 1014.6 hPa | 0 mm | - | - | - |
| 1777855824 | 18.33° C | 46% | 1014.7 hPa | 0 mm | - | - | - |
| 1777855224 | 18.33° C | 45% | 1014.9 hPa | 0 mm | - | - | - |
| 1777854623 | 18.89° C | 44% | 1014.7 hPa | 0 mm | - | - | - |
| 1777854023 | 19.44° C | 43% | 1014.7 hPa | 0 mm | - | - | - |
| 1777853422 | 20° C | 42% | 1014.7 hPa | 0 mm | - | - | - |
| 1777852823 | 20° C | 40% | 1015 hPa | 0 mm | - | - | - |
| 1777852222 | 20.56° C | 39% | 1015.1 hPa | 0 mm | - | - | - |
| 1777851622 | 21.11° C | 37% | 1015.2 hPa | 0 mm | - | - | - |
| 1777851022 | 21.11° C | 37% | 1015.3 hPa | 0 mm | - | - | - |
| 1777850421 | 21.67° C | 37% | 1015.2 hPa | 0 mm | - | - | - |
| 1777849821 | 21.67° C | 38% | 1015.3 hPa | 0 mm | - | - | - |
| 1777849221 | 21.67° C | 37% | 1015.4 hPa | 0 mm | - | - | - |
| 1777848621 | 22.22° C | 38% | 1015.4 hPa | 0 mm | - | - | - |
| 1777848020 | 21.67° C | 38% | 1015.3 hPa | 0 mm | - | - | - |
| 1777847420 | 21.67° C | 38% | 1015.4 hPa | 0 mm | - | - | - |
| 1777846820 | 22.22° C | 36% | 1015.6 hPa | 0 mm | - | - | - |
| 1777846219 | 22.22° C | 36% | 1015.8 hPa | 0 mm | - | - | - |
| 1777845619 | 22.22° C | 36% | 1015.9 hPa | 0 mm | - | - | - |
| 1777845019 | 22.22° C | 39% | 1016.1 hPa | 0 mm | - | - | - |
| 1777844418 | 22.22° C | 37% | 1016.3 hPa | 0 mm | - | - | - |
| 1777843818 | 22.22° C | 35% | 1016.3 hPa | 0 mm | - | - | - |
| 1777843218 | 22.22° C | 37% | 1016.5 hPa | 0 mm | - | - | - |
* Rain latest hour (hover to see other rain measurements)
** Current wind speed in m/s (hover to see current wind gust speed)